Data supplied by UK-AIR on 5/3/2020
All Data GMT hour ending 
Status: R =Ratified P=Provisional,P*=As supplied
,,Reading London Road,,,,,,,,,,,,,,,,,,,,,,,
Date,time,"PM<sub>10</sub> particulate matter (Hourly measured)",status,unit,"Nitric oxide",status,unit,"Nitrogen dioxide",status,unit,"Nitrogen oxides as nitrogen dioxide",status,unit
 
01-01-2018,01:00,15.566,R,ugm-3 (Ref.eq),,,,,,,,,
01-01-2018,02:00,8.041,R,ugm-3 (Ref.eq),,,,,,,,,
01-01-2018,03:00,6.008,R,ugm-3 (Ref.eq),2.23998,R,ugm-3,10.10762,R,ugm-3,13.54221,R,ugm-3
01-01-2018,04:00,4.175,R,ugm-3 (Ref.eq),2.98664,R,ugm-3,7.41935,R,ugm-3,11.99880,R,ugm-3
01-01-2018,05:00,5.600,R,ugm-3 (Ref.eq),1.68810,R,ugm-3,6.82146,R,ugm-3,9.40985,R,ugm-3
01-01-2018,06:00,7.025,R,ugm-3 (Ref.eq),0.74666,R,ugm-3,2.43984,R,ugm-3,3.58470,R,ugm-3
01-01-2018,07:00,8.241,R,ugm-3 (Ref.eq),0.16232,R,ugm-3,3.93327,R,ugm-3,4.18215,R,ugm-3
01-01-2018,08:00,10.275,R,ugm-3 (Ref.eq),0.64927,R,ugm-3,4.38152,R,ugm-3,5.37706,R,ugm-3
01-01-2018,09:00,11.291,R,ugm-3 (Ref.eq),0.42203,R,ugm-3,5.72571,R,ugm-3,6.37281,R,ugm-3
01-01-2018,10:00,15.366,R,ugm-3 (Ref.eq),38.53417,R,ugm-3,49.10345,R,ugm-3,108.18835,R,ugm-3
01-01-2018,11:00,20.858,R,ugm-3 (Ref.eq),63.04411,R,ugm-3,73.35820,R,ugm-3,170.02449,R,ugm-3
01-01-2018,12:00,13.533,R,ugm-3 (Ref.eq),31.16496,R,ugm-3,48.60310,R,ugm-3,96.38870,R,ugm-3
01-01-2018,13:00,6.616,R,ugm-3 (Ref.eq),13.11525,R,ugm-3,26.93946,R,ugm-3,47.04924,R,ugm-3
01-01-2018,14:00,6.008,R,ugm-3 (Ref.eq),15.90711,R,ugm-3,32.96469,R,ugm-3,57.35526,R,ugm-3
01-01-2018,15:00,4.375,R,ugm-3 (Ref.eq),12.20628,R,ugm-3,26.19234,R,ugm-3,44.90837,R,ugm-3
01-01-2018,16:00,5.800,R,ugm-3 (Ref.eq),15.64741,R,ugm-3,31.91907,R,ugm-3,55.91142,R,ugm-3
01-01-2018,17:00,7.225,R,ugm-3 (Ref.eq),19.18593,R,ugm-3,37.39688,R,ugm-3,66.81489,R,ugm-3
01-01-2018,18:00,7.633,R,ugm-3 (Ref.eq),16.75116,R,ugm-3,36.49989,R,ugm-3,62.18465,R,ugm-3
01-01-2018,19:00,8.450,R,ugm-3 (Ref.eq),11.65440,R,ugm-3,25.64450,R,ugm-3,43.51432,R,ugm-3
01-01-2018,20:00,9.058,R,ugm-3 (Ref.eq),7.59646,R,ugm-3,17.32862,R,ugm-3,28.97635,R,ugm-3
01-01-2018,21:00,10.483,R,ugm-3 (Ref.eq),7.04458,R,ugm-3,17.12928,R,ugm-3,27.93082,R,ugm-3
01-01-2018,22:00,9.666,R,ugm-3 (Ref.eq),7.59646,R,ugm-3,18.82224,R,ugm-3,30.46998,R,ugm-3
01-01-2018,23:00,6.816,R,ugm-3 (Ref.eq),4.90199,R,ugm-3,17.02899,R,ugm-3,24.54526,R,ugm-3
01-01-2018,24:00,4.583,R,ugm-3 (Ref.eq),4.96691,R,ugm-3,14.34048,R,ugm-3,21.95631,R,ugm-3
02-01-2018,01:00,6.616,R,ugm-3 (Ref.eq),3.95194,R,ugm-3,11.43515,R,ugm-3,17.49471,R,ugm-3
02-01-2018,02:00,9.258,R,ugm-3 (Ref.eq),,,,,,,,,
02-01-2018,03:00,10.891,R,ugm-3 (Ref.eq),3.25709,R,ugm-3,12.56709,R,ugm-3,17.56123,R,ugm-3
02-01-2018,04:00,11.500,R,ugm-3 (Ref.eq),2.89881,R,ugm-3,11.47008,R,ugm-3,15.91486,R,ugm-3
02-01-2018,05:00,9.258,R,ugm-3 (Ref.eq),4.39708,R,ugm-3,13.16396,R,ugm-3,19.90605,R,ugm-3
02-01-2018,06:00,13.124,R,ugm-3 (Ref.eq),2.60568,R,ugm-3,14.91294,R,ugm-3,18.90825,R,ugm-3
02-01-2018,07:00,12.716,R,ugm-3 (Ref.eq),1.04227,R,ugm-3,15.81343,R,ugm-3,17.41156,R,ugm-3
02-01-2018,08:00,11.091,R,ugm-3 (Ref.eq),1.04227,R,ugm-3,22.49868,R,ugm-3,24.09680,R,ugm-3
02-01-2018,09:00,14.349,R,ugm-3 (Ref.eq),1.95426,R,ugm-3,35.06947,R,ugm-3,38.06596,R,ugm-3
02-01-2018,10:00,17.399,R,ugm-3 (Ref.eq),5.96048,R,ugm-3,44.84154,R,ugm-3,53.98082,R,ugm-3
02-01-2018,11:00,12.108,R,ugm-3 (Ref.eq),3.87594,R,ugm-3,40.35476,R,ugm-3,46.29779,R,ugm-3
02-01-2018,12:00,9.875,R,ugm-3 (Ref.eq),2.18225,R,ugm-3,23.54456,R,ugm-3,26.89063,R,ugm-3
02-01-2018,13:00,7.433,R,ugm-3 (Ref.eq),1.46569,R,ugm-3,18.40704,R,ugm-3,20.65440,R,ugm-3
02-01-2018,14:00,6.208,R,ugm-3 (Ref.eq),0.81427,R,ugm-3,11.27382,R,ugm-3,12.52235,R,ugm-3
02-01-2018,15:00,6.416,R,ugm-3 (Ref.eq),2.14968,R,ugm-3,17.05893,R,ugm-3,20.35506,R,ugm-3
02-01-2018,16:00,23.299,R,ugm-3 (Ref.eq),16.18776,R,ugm-3,33.10123,R,ugm-3,57.92212,R,ugm-3
02-01-2018,17:00,34.690,R,ugm-3 (Ref.eq),22.57167,R,ugm-3,37.38166,R,ugm-3,71.99106,R,ugm-3
02-01-2018,18:00,36.115,R,ugm-3 (Ref.eq),17.88145,R,ugm-3,32.05087,R,ugm-3,59.46871,R,ugm-3
02-01-2018,19:00,33.674,R,ugm-3 (Ref.eq),0.74913,R,ugm-3,18.00905,R,ugm-3,19.15770,R,ugm-3
02-01-2018,20:00,36.115,R,ugm-3 (Ref.eq),0.81427,R,ugm-3,15.66413,R,ugm-3,16.91266,R,ugm-3
02-01-2018,21:00,21.874,R,ugm-3 (Ref.eq),0.84684,R,ugm-3,8.87905,R,ugm-3,10.17753,R,ugm-3
02-01-2018,22:00,9.466,R,ugm-3 (Ref.eq),0.55371,R,ugm-3,4.78855,R,ugm-3,5.63755,R,ugm-3
02-01-2018,23:00,5.800,R,ugm-3 (Ref.eq),0.65142,R,ugm-3,3.29170,R,ugm-3,4.29053,R,ugm-3
02-01-2018,24:00,1.325,R,ugm-3 (Ref.eq),2.11711,R,ugm-3,5.23508,R,ugm-3,8.48128,R,ugm-3
03-01-2018,01:00,12.924,R,ugm-3 (Ref.eq),3.44212,R,ugm-3,6.52030,R,ugm-3,11.79815,R,ugm-3
03-01-2018,02:00,11.291,R,ugm-3 (Ref.eq),,,,,,,,,
03-01-2018,03:00,10.683,R,ugm-3 (Ref.eq),1.20910,R,ugm-3,2.39540,R,ugm-3,4.24933,R,ugm-3
03-01-2018,04:00,15.974,R,ugm-3 (Ref.eq),2.83213,R,ugm-3,2.52305,R,ugm-3,6.86559,R,ugm-3
03-01-2018,05:00,7.833,R,ugm-3 (Ref.eq),1.79731,R,ugm-3,2.74330,R,ugm-3,5.49914,R,ugm-3
03-01-2018,06:00,17.599,R,ugm-3 (Ref.eq),5.65336,R,ugm-3,8.52894,R,ugm-3,17.19730,R,ugm-3
03-01-2018,07:00,12.716,R,ugm-3 (Ref.eq),9.24799,R,ugm-3,15.96523,R,ugm-3,30.14527,R,ugm-3
03-01-2018,08:00,21.266,R,ugm-3 (Ref.eq),21.66578,R,ugm-3,29.41978,R,ugm-3,62.64017,R,ugm-3
03-01-2018,09:00,18.216,R,ugm-3 (Ref.eq),38.07033,R,ugm-3,43.91026,R,ugm-3,102.28395,R,ugm-3
03-01-2018,10:00,14.749,R,ugm-3 (Ref.eq),18.65936,R,ugm-3,26.43074,R,ugm-3,55.04137,R,ugm-3
03-01-2018,11:00,22.482,R,ugm-3 (Ref.eq),18.23454,R,ugm-3,22.88278,R,ugm-3,50.84202,R,ugm-3
03-01-2018,12:00,28.791,R,ugm-3 (Ref.eq),15.35885,R,ugm-3,21.69300,R,ugm-3,45.24290,R,ugm-3
03-01-2018,13:00,28.182,R,ugm-3 (Ref.eq),14.31314,R,ugm-3,21.64666,R,ugm-3,43.59316,R,ugm-3
03-01-2018,14:00,33.265,R,ugm-3 (Ref.eq),18.59401,R,ugm-3,22.38161,R,ugm-3,50.89202,R,ugm-3
03-01-2018,15:00,29.199,R,ugm-3 (Ref.eq),17.71169,R,ugm-3,26.23408,R,ugm-3,53.39162,R,ugm-3
03-01-2018,16:00,29.607,R,ugm-3 (Ref.eq),22.38470,R,ugm-3,29.61724,R,ugm-3,63.93997,R,ugm-3
03-01-2018,17:00,31.640,R,ugm-3 (Ref.eq),28.16878,R,ugm-3,40.94528,R,ugm-3,84.13680,R,ugm-3
03-01-2018,18:00,33.674,R,ugm-3 (Ref.eq),28.85502,R,ugm-3,42.49264,R,ugm-3,86.73639,R,ugm-3
03-01-2018,19:00,31.232,R,ugm-3 (Ref.eq),26.76360,R,ugm-3,41.45010,R,ugm-3,82.48706,R,ugm-3
03-01-2018,20:00,31.640,R,ugm-3 (Ref.eq),18.69204,R,ugm-3,38.42874,R,ugm-3,67.08948,R,ugm-3
03-01-2018,21:00,28.791,R,ugm-3 (Ref.eq),3.75802,R,ugm-3,21.28355,R,ugm-3,27.04576,R,ugm-3
03-01-2018,22:00,25.941,R,ugm-3 (Ref.eq),4.90176,R,ugm-3,21.07959,R,ugm-3,28.59551,R,ugm-3
03-01-2018,23:00,29.199,R,ugm-3 (Ref.eq),4.47694,R,ugm-3,18.13153,R,ugm-3,24.99608,R,ugm-3
03-01-2018,24:00,21.266,R,ugm-3 (Ref.eq),2.61427,R,ugm-3,15.28848,R,ugm-3,19.29697,R,ugm-3
04-01-2018,01:00,10.275,R,ugm-3 (Ref.eq),1.61744,R,ugm-3,11.54642,R,ugm-3,14.02645,R,ugm-3
04-01-2018,02:00,9.666,R,ugm-3 (Ref.eq),,,,,,,,,
04-01-2018,03:00,12.316,R,ugm-3 (Ref.eq),0.65572,R,ugm-3,3.70346,R,ugm-3,4.70888,R,ugm-3
04-01-2018,04:00,7.025,R,ugm-3 (Ref.eq),0.49179,R,ugm-3,3.55406,R,ugm-3,4.30812,R,ugm-3
04-01-2018,05:00,8.241,R,ugm-3 (Ref.eq),0.91800,R,ugm-3,6.05649,R,ugm-3,7.46407,R,ugm-3
04-01-2018,06:00,7.633,R,ugm-3 (Ref.eq),0.45900,R,ugm-3,7.76217,R,ugm-3,8.46596,R,ugm-3
04-01-2018,07:00,5.800,R,ugm-3 (Ref.eq),14.55691,R,ugm-3,29.87814,R,ugm-3,52.19843,R,ugm-3
04-01-2018,08:00,6.416,R,ugm-3 (Ref.eq),43.57239,R,ugm-3,58.97713,R,ugm-3,125.78719,R,ugm-3
04-01-2018,09:00,7.433,R,ugm-3 (Ref.eq),2.22944,R,ugm-3,38.10989,R,ugm-3,41.52831,R,ugm-3
04-01-2018,10:00,8.450,R,ugm-3 (Ref.eq),20.95015,R,ugm-3,45.27282,R,ugm-3,77.39594,R,ugm-3
04-01-2018,11:00,25.532,R,ugm-3 (Ref.eq),21.21244,R,ugm-3,33.89997,R,ugm-3,66.42525,R,ugm-3
04-01-2018,12:00,42.215,R,ugm-3 (Ref.eq),10.16361,R,ugm-3,18.98119,R,ugm-3,34.56518,R,ugm-3
04-01-2018,13:00,27.574,R,ugm-3 (Ref.eq),18.75350,R,ugm-3,27.05026,R,ugm-3,55.80523,R,ugm-3
04-01-2018,14:00,39.165,R,ugm-3 (Ref.eq),,,,,,,,,
04-01-2018,15:00,,,,,,,,,,,,
04-01-2018,16:00,,,,,,,,,,,,
04-01-2018,17:00,,,,24.39267,R,ugm-3,38.04069,R,ugm-3,75.44226,R,ugm-3
04-01-2018,18:00,,,,35.99886,R,ugm-3,53.40731,R,ugm-3,108.60479,R,ugm-3
04-01-2018,19:00,,,,30.03183,R,ugm-3,46.02545,R,ugm-3,92.07362,R,ugm-3
04-01-2018,20:00,,,,10.68819,R,ugm-3,25.34037,R,ugm-3,41.72869,R,ugm-3
04-01-2018,21:00,,,,2.13108,R,ugm-3,13.46394,R,ugm-3,16.73155,R,ugm-3
04-01-2018,22:00,,,,0.98358,R,ugm-3,13.72059,R,ugm-3,15.22872,R,ugm-3
04-01-2018,23:00,,,,0.59015,R,ugm-3,10.61685,R,ugm-3,11.52173,R,ugm-3
04-01-2018,24:00,,,,2.45894,R,ugm-3,15.56614,R,ugm-3,19.33646,R,ugm-3
05-01-2018,01:00,,,,0.26205,R,ugm-3,8.61643,R,ugm-3,9.01824,R,ugm-3
05-01-2018,02:00,,,,,,,,,,,,
05-01-2018,03:00,,,,0.32757,R,ugm-3,6.61213,R,ugm-3,7.11439,R,ugm-3
05-01-2018,04:00,,,,0.72065,R,ugm-3,4.45627,R,ugm-3,5.56124,R,ugm-3
05-01-2018,05:00,,,,1.40853,R,ugm-3,8.76236,R,ugm-3,10.92209,R,ugm-3
05-01-2018,06:00,,,,0.45859,R,ugm-3,5.60960,R,ugm-3,6.31277,R,ugm-3
05-01-2018,07:00,,,,0.52411,R,ugm-3,9.56735,R,ugm-3,10.37097,R,ugm-3
05-01-2018,08:00,,,,0.52411,R,ugm-3,17.88417,R,ugm-3,18.68779,R,ugm-3
05-01-2018,09:00,,,,0.65513,R,ugm-3,19.83762,R,ugm-3,20.84214,R,ugm-3
05-01-2018,10:00,,,,0.94994,R,ugm-3,15.32738,R,ugm-3,16.78394,R,ugm-3
05-01-2018,11:00,,,,2.35847,R,ugm-3,12.46624,R,ugm-3,16.08252,R,ugm-3
05-01-2018,12:00,,,,14.18360,R,ugm-3,24.09481,R,ugm-3,45.84269,R,ugm-3
05-01-2018,13:00,,,,20.99697,R,ugm-3,25.77230,R,ugm-3,57.96721,R,ugm-3
05-01-2018,14:00,,,,16.14900,R,ugm-3,21.83276,R,ugm-3,46.59421,R,ugm-3
05-01-2018,15:00,,,,28.98957,R,ugm-3,36.46354,R,ugm-3,80.91360,R,ugm-3
05-01-2018,16:00,,,,33.60825,R,ugm-3,49.12158,R,ugm-3,100.65352,R,ugm-3
05-01-2018,17:00,,,,40.97848,R,ugm-3,63.47258,R,ugm-3,126.30538,R,ugm-3
05-01-2018,18:00,,,,50.11757,R,ugm-3,70.20145,R,ugm-3,147.04732,R,ugm-3
05-01-2018,19:00,,,,18.34369,R,ugm-3,56.64481,R,ugm-3,84.77140,R,ugm-3
05-01-2018,20:00,,,,86.18257,R,ugm-3,75.77564,R,ugm-3,207.92040,R,ugm-3
05-01-2018,21:00,,,,184.61610,R,ugm-3,89.07840,R,ugm-3,372.15247,R,ugm-3
05-01-2018,22:00,,,,171.41519,R,ugm-3,78.60741,R,ugm-3,341.44037,R,ugm-3
05-01-2018,23:00,,,,107.60537,R,ugm-3,63.11862,R,ugm-3,228.11123,R,ugm-3
05-01-2018,24:00,,,,44.22139,R,ugm-3,53.03916,R,ugm-3,120.84434,R,ugm-3
06-01-2018,01:00,,,,27.97095,R,ugm-3,39.82365,R,ugm-3,82.71184,R,ugm-3
06-01-2018,02:00,,,,,,,,,,,,
06-01-2018,03:00,,,,22.25458,R,ugm-3,38.58370,R,ugm-3,72.70692,R,ugm-3
06-01-2018,04:00,,,,44.57461,R,ugm-3,41.84102,R,ugm-3,110.18781,R,ugm-3
06-01-2018,05:00,,,,41.92370,R,ugm-3,35.18256,R,ugm-3,99.46466,R,ugm-3
06-01-2018,06:00,,,,80.28012,R,ugm-3,33.09262,R,ugm-3,156.18708,R,ugm-3
06-01-2018,07:00,,,,95.53105,R,ugm-3,34.01063,R,ugm-3,180.48953,R,ugm-3
06-01-2018,08:00,,,,169.33116,R,ugm-3,48.82824,R,ugm-3,308.46573,R,ugm-3
06-01-2018,09:00,,,,103.87652,R,ugm-3,54.98732,R,ugm-3,214.26242,R,ugm-3
06-01-2018,10:00,,,,111.40380,R,ugm-3,66.24485,R,ugm-3,237.06162,R,ugm-3
06-01-2018,11:00,,,,108.32743,R,ugm-3,63.94674,R,ugm-3,230.04648,R,ugm-3
06-01-2018,12:00,,,,121.28745,R,ugm-3,66.32300,R,ugm-3,252.29450,R,ugm-3
06-01-2018,13:00,,,,66.89464,R,ugm-3,57.97613,R,ugm-3,160.54649,R,ugm-3
06-01-2018,14:00,,,,52.13462,R,ugm-3,46.68464,R,ugm-3,126.62328,R,ugm-3
06-01-2018,15:00,,,,50.92371,R,ugm-3,45.08388,R,ugm-3,123.16582,R,ugm-3
06-01-2018,16:00,,,,42.57824,R,ugm-3,35.73229,R,ugm-3,101.01802,R,ugm-3
06-01-2018,17:00,,,,35.96733,R,ugm-3,28.33104,R,ugm-3,83.48017,R,ugm-3
06-01-2018,18:00,,,,41.43279,R,ugm-3,32.67825,R,ugm-3,96.20763,R,ugm-3
06-01-2018,19:00,,,,36.55642,R,ugm-3,33.03989,R,ugm-3,89.09228,R,ugm-3
06-01-2018,20:00,,,,35.44369,R,ugm-3,31.28858,R,ugm-3,85.63482,R,ugm-3
06-01-2018,21:00,,,,30.46914,R,ugm-3,26.08844,R,ugm-3,72.80713,R,ugm-3
06-01-2018,22:00,,,,23.10549,R,ugm-3,24.30098,R,ugm-3,59.72891,R,ugm-3
06-01-2018,23:00,,,,18.22912,R,ugm-3,23.35981,R,ugm-3,51.31074,R,ugm-3
06-01-2018,24:00,,,,16.82184,R,ugm-3,19.10376,R,ugm-3,44.89690,R,ugm-3
07-01-2018,01:00,,,,10.11460,R,ugm-3,12.02099,R,ugm-3,27.52983,R,ugm-3
07-01-2018,02:00,,,,,,,,,,,,
07-01-2018,03:00,,,,6.37612,R,ugm-3,7.76366,R,ugm-3,17.54025,R,ugm-3
07-01-2018,04:00,,,,6.44152,R,ugm-3,6.71120,R,ugm-3,16.58806,R,ugm-3
07-01-2018,05:00,,,,5.88565,R,ugm-3,6.26053,R,ugm-3,15.28507,R,ugm-3
07-01-2018,06:00,,,,6.17993,R,ugm-3,7.86402,R,ugm-3,17.33979,R,ugm-3
07-01-2018,07:00,,,,9.15546,R,ugm-3,10.26760,R,ugm-3,24.30577,R,ugm-3
07-01-2018,08:00,,,,10.46338,R,ugm-3,11.11870,R,ugm-3,27.16232,R,ugm-3
07-01-2018,09:00,,,,16.15284,R,ugm-3,13.82119,R,ugm-3,38.58854,R,ugm-3
07-01-2018,10:00,,,,24.85053,R,ugm-3,21.03207,R,ugm-3,59.13568,R,ugm-3
07-01-2018,11:00,,,,30.89967,R,ugm-3,23.58399,R,ugm-3,70.96282,R,ugm-3
07-01-2018,12:00,,,,27.89145,R,ugm-3,26.64297,R,ugm-3,69.40925,R,ugm-3
07-01-2018,13:00,,,,38.97609,R,ugm-3,35.65643,R,ugm-3,95.41893,R,ugm-3
07-01-2018,14:00,,,,34.36566,R,ugm-3,31.90081,R,ugm-3,84.59409,R,ugm-3
07-01-2018,15:00,,,,34.82343,R,ugm-3,36.86190,R,ugm-3,90.25709,R,ugm-3
07-01-2018,16:00,,,,38.97609,R,ugm-3,40.01643,R,ugm-3,99.77893,R,ugm-3
07-01-2018,17:00,,,,50.02803,R,ugm-3,49.58118,R,ugm-3,126.28976,R,ugm-3
07-01-2018,18:00,,,,40.15322,R,ugm-3,43.92463,R,ugm-3,105.49204,R,ugm-3
07-01-2018,19:00,,,,37.60277,R,ugm-3,43.02423,R,ugm-3,100.68100,R,ugm-3
07-01-2018,20:00,,,,40.80718,R,ugm-3,49.73754,R,ugm-3,112.30768,R,ugm-3
07-01-2018,21:00,,,,32.53457,R,ugm-3,44.38064,R,ugm-3,94.26629,R,ugm-3
07-01-2018,22:00,,,,29.03588,R,ugm-3,42.17787,R,ugm-3,86.69892,R,ugm-3
07-01-2018,23:00,,,,20.14201,R,ugm-3,29.00343,R,ugm-3,59.88741,R,ugm-3
07-01-2018,24:00,,,,12.58875,R,ugm-3,20.13801,R,ugm-3,39.44049,R,ugm-3
08-01-2018,01:00,,,,7.70984,R,ugm-3,16.58078,R,ugm-3,28.40237,R,ugm-3
08-01-2018,02:00,,,,,,,,,,,,
08-01-2018,03:00,,,,3.46289,R,ugm-3,11.53124,R,ugm-3,16.84093,R,ugm-3
08-01-2018,04:00,,,,4.73698,R,ugm-3,11.88328,R,ugm-3,19.14654,R,ugm-3
08-01-2018,05:00,,,,10.25800,R,ugm-3,20.25875,R,ugm-3,35.98747,R,ugm-3
08-01-2018,06:00,,,,24.59961,R,ugm-3,32.30132,R,ugm-3,70.02019,R,ugm-3
08-01-2018,07:00,,,,80.16923,R,ugm-3,55.45913,R,ugm-3,178.38358,R,ugm-3
08-01-2018,08:00,,,,86.50698,R,ugm-3,52.60808,R,ugm-3,185.25027,R,ugm-3
08-01-2018,09:00,,,,114.40613,R,ugm-3,63.96155,R,ugm-3,239.38184,R,ugm-3
08-01-2018,10:00,,,,114.04678,R,ugm-3,68.67266,R,ugm-3,243.54195,R,ugm-3
08-01-2018,11:00,,,,99.77051,R,ugm-3,59.83795,R,ugm-3,212.81727,R,ugm-3
08-01-2018,12:00,,,,94.87019,R,ugm-3,60.98620,R,ugm-3,206.45180,R,ugm-3
08-01-2018,13:00,,,,111.36794,R,ugm-3,62.80592,R,ugm-3,233.56771,R,ugm-3
08-01-2018,14:00,,,,124.10877,R,ugm-3,63.82020,R,ugm-3,254.11766,R,ugm-3
08-01-2018,15:00,,,,84.97155,R,ugm-3,57.86945,R,ugm-3,188.15733,R,ugm-3
08-01-2018,16:00,20.041,R,ugm-3 (Ref.eq),92.74672,R,ugm-3,59.07960,R,ugm-3,201.28925,R,ugm-3
08-01-2018,17:00,21.874,R,ugm-3 (Ref.eq),86.73566,R,ugm-3,57.11926,R,ugm-3,190.11208,R,ugm-3
08-01-2018,18:00,20.249,R,ugm-3 (Ref.eq),94.54350,R,ugm-3,63.84284,R,ugm-3,208.80753,R,ugm-3
08-01-2018,19:00,21.874,R,ugm-3 (Ref.eq),83.53412,R,ugm-3,57.36689,R,ugm-3,185.45076,R,ugm-3
08-01-2018,20:00,14.958,R,ugm-3 (Ref.eq),53.51149,R,ugm-3,51.77546,R,ugm-3,133.82528,R,ugm-3
08-01-2018,21:00,17.808,R,ugm-3 (Ref.eq),45.76899,R,ugm-3,47.05681,R,ugm-3,117.23495,R,ugm-3
08-01-2018,22:00,13.124,R,ugm-3 (Ref.eq),29.40192,R,ugm-3,42.78125,R,ugm-3,87.86356,R,ugm-3
08-01-2018,23:00,13.941,R,ugm-3 (Ref.eq),15.61569,R,ugm-3,35.30028,R,ugm-3,59.24400,R,ugm-3
08-01-2018,24:00,16.383,R,ugm-3 (Ref.eq),7.08913,R,ugm-3,26.62128,R,ugm-3,37.49113,R,ugm-3
09-01-2018,01:00,16.383,R,ugm-3 (Ref.eq),7.87701,R,ugm-3,26.95561,R,ugm-3,39.03352,R,ugm-3
09-01-2018,02:00,19.633,R,ugm-3 (Ref.eq),,,,,,,,,
09-01-2018,03:00,20.658,R,ugm-3 (Ref.eq),10.34673,R,ugm-3,26.44382,R,ugm-3,42.30860,R,ugm-3
09-01-2018,04:00,24.724,R,ugm-3 (Ref.eq),2.97020,R,ugm-3,24.97155,R,ugm-3,29.52579,R,ugm-3
09-01-2018,05:00,17.599,R,ugm-3 (Ref.eq),5.67928,R,ugm-3,23.12360,R,ugm-3,31.83170,R,ugm-3
09-01-2018,06:00,20.249,R,ugm-3 (Ref.eq),6.23415,R,ugm-3,23.52602,R,ugm-3,33.08492,R,ugm-3
09-01-2018,07:00,19.233,R,ugm-3 (Ref.eq),15.37322,R,ugm-3,27.96032,R,ugm-3,51.53227,R,ugm-3
09-01-2018,08:00,20.658,R,ugm-3 (Ref.eq),24.21854,R,ugm-3,36.05328,R,ugm-3,73.18785,R,ugm-3
09-01-2018,09:00,22.282,R,ugm-3 (Ref.eq),166.78804,R,ugm-3,68.09309,R,ugm-3,323.83119,R,ugm-3
09-01-2018,10:00,21.466,R,ugm-3 (Ref.eq),164.30744,R,ugm-3,74.35294,R,ugm-3,326.28749,R,ugm-3
09-01-2018,11:00,35.915,R,ugm-3 (Ref.eq),73.34104,R,ugm-3,43.49559,R,ugm-3,155.95028,R,ugm-3
09-01-2018,12:00,31.440,R,ugm-3 (Ref.eq),61.23177,R,ugm-3,39.35459,R,ugm-3,133.24200,R,ugm-3
09-01-2018,13:00,34.899,R,ugm-3 (Ref.eq),61.81929,R,ugm-3,38.80465,R,ugm-3,133.59290,R,ugm-3
09-01-2018,14:00,31.232,R,ugm-3 (Ref.eq),42.62724,R,ugm-3,33.74352,R,ugm-3,99.10438,R,ugm-3
09-01-2018,15:00,33.474,R,ugm-3 (Ref.eq),29.86518,R,ugm-3,29.80140,R,ugm-3,75.59403,R,ugm-3
09-01-2018,16:00,25.741,R,ugm-3 (Ref.eq),30.09365,R,ugm-3,33.01021,R,ugm-3,79.15317,R,ugm-3
09-01-2018,17:00,26.757,R,ugm-3 (Ref.eq),31.72563,R,ugm-3,37.32538,R,ugm-3,85.97066,R,ugm-3
09-01-2018,18:00,23.707,R,ugm-3 (Ref.eq),26.07899,R,ugm-3,40.01812,R,ugm-3,80.00535,R,ugm-3
09-01-2018,19:00,29.399,R,ugm-3 (Ref.eq),22.58656,R,ugm-3,42.16487,R,ugm-3,76.79712,R,ugm-3
09-01-2018,20:00,27.974,R,ugm-3 (Ref.eq),11.16272,R,ugm-3,40.43177,R,ugm-3,57.54771,R,ugm-3
09-01-2018,21:00,21.674,R,ugm-3 (Ref.eq),14.65515,R,ugm-3,37.68348,R,ugm-3,60.15440,R,ugm-3
09-01-2018,22:00,26.757,R,ugm-3 (Ref.eq),14.36140,R,ugm-3,38.63519,R,ugm-3,60.65569,R,ugm-3
09-01-2018,23:00,20.249,R,ugm-3 (Ref.eq),1.40350,R,ugm-3,18.40075,R,ugm-3,20.55275,R,ugm-3
09-01-2018,24:00,19.841,R,ugm-3 (Ref.eq),1.07711,R,ugm-3,10.98089,R,ugm-3,12.63242,R,ugm-3
10-01-2018,01:00,20.249,R,ugm-3 (Ref.eq),0.43480,R,ugm-3,8.75879,R,ugm-3,9.42548,R,ugm-3
10-01-2018,02:00,18.216,R,ugm-3 (Ref.eq),,,,,,,,,
10-01-2018,03:00,19.633,R,ugm-3 (Ref.eq),6.16334,R,ugm-3,15.16621,R,ugm-3,24.61654,R,ugm-3
10-01-2018,04:00,18.616,R,ugm-3 (Ref.eq),12.65279,R,ugm-3,19.75516,R,ugm-3,39.15583,R,ugm-3
10-01-2018,05:00,6.816,R,ugm-3 (Ref.eq),9.16349,R,ugm-3,17.08366,R,ugm-3,31.13415,R,ugm-3
10-01-2018,06:00,4.375,R,ugm-3 (Ref.eq),12.13102,R,ugm-3,21.95898,R,ugm-3,40.55963,R,ugm-3
10-01-2018,07:00,14.349,R,ugm-3 (Ref.eq),27.06653,R,ugm-3,42.32514,R,ugm-3,83.82657,R,ugm-3
10-01-2018,08:00,7.433,R,ugm-3 (Ref.eq),33.26248,R,ugm-3,59.14595,R,ugm-3,110.14771,R,ugm-3
10-01-2018,09:00,7.633,R,ugm-3 (Ref.eq),24.91425,R,ugm-3,53.49653,R,ugm-3,91.69784,R,ugm-3
10-01-2018,10:00,9.666,R,ugm-3 (Ref.eq),28.89271,R,ugm-3,48.74997,R,ugm-3,93.05150,R,ugm-3
10-01-2018,11:00,15.366,R,ugm-3 (Ref.eq),31.72980,R,ugm-3,41.74264,R,ugm-3,90.39432,R,ugm-3
10-01-2018,12:00,12.516,R,ugm-3 (Ref.eq),45.23045,R,ugm-3,49.41862,R,ugm-3,118.77102,R,ugm-3
10-01-2018,13:00,15.566,R,ugm-3 (Ref.eq),32.08851,R,ugm-3,39.38774,R,ugm-3,88.58944,R,ugm-3
10-01-2018,14:00,13.533,R,ugm-3 (Ref.eq),24.39249,R,ugm-3,31.68544,R,ugm-3,69.08673,R,ugm-3
10-01-2018,15:00,13.533,R,ugm-3 (Ref.eq),27.09914,R,ugm-3,38.86592,R,ugm-3,80.41736,R,ugm-3
10-01-2018,16:00,13.533,R,ugm-3 (Ref.eq),12.03319,R,ugm-3,45.52227,R,ugm-3,63.97291,R,ugm-3
10-01-2018,17:00,24.724,R,ugm-3 (Ref.eq),62.15519,R,ugm-3,60.26719,R,ugm-3,155.57048,R,ugm-3
10-01-2018,18:00,27.366,R,ugm-3 (Ref.eq),244.21837,R,ugm-3,91.69702,R,ugm-3,466.15995,R,ugm-3
10-01-2018,19:00,43.032,R,ugm-3 (Ref.eq),330.14645,R,ugm-3,98.76769,R,ugm-3,604.98518,R,ugm-3
10-01-2018,20:00,48.115,R,ugm-3 (Ref.eq),433.12970,R,ugm-3,114.53163,R,ugm-3,778.65458,R,ugm-3
10-01-2018,21:00,33.265,R,ugm-3 (Ref.eq),243.72921,R,ugm-3,78.65978,R,ugm-3,452.37269,R,ugm-3
10-01-2018,22:00,35.099,R,ugm-3 (Ref.eq),180.98704,R,ugm-3,56.09208,R,ugm-3,333.60167,R,ugm-3
10-01-2018,23:00,30.624,R,ugm-3 (Ref.eq),159.04032,R,ugm-3,54.69853,R,ugm-3,298.55695,R,ugm-3
10-01-2018,24:00,19.841,R,ugm-3 (Ref.eq),117.91876,R,ugm-3,54.32929,R,ugm-3,235.13553,R,ugm-3
11-01-2018,01:00,15.774,R,ugm-3 (Ref.eq),126.71843,R,ugm-3,49.25922,R,ugm-3,243.55811,R,ugm-3
11-01-2018,02:00,7.833,R,ugm-3 (Ref.eq),,,,,,,,,
11-01-2018,03:00,13.533,R,ugm-3 (Ref.eq),93.14913,R,ugm-3,45.30743,R,ugm-3,188.13410,R,ugm-3
11-01-2018,04:00,9.875,R,ugm-3 (Ref.eq),82.13674,R,ugm-3,47.04986,R,ugm-3,172.99111,R,ugm-3
11-01-2018,05:00,10.483,R,ugm-3 (Ref.eq),96.30948,R,ugm-3,37.60350,R,ugm-3,185.27598,R,ugm-3
11-01-2018,06:00,14.749,R,ugm-3 (Ref.eq),55.09450,R,ugm-3,34.31017,R,ugm-3,118.78723,R,ugm-3
11-01-2018,07:00,13.533,R,ugm-3 (Ref.eq),75.19699,R,ugm-3,36.93174,R,ugm-3,152.23217,R,ugm-3
11-01-2018,08:00,20.449,R,ugm-3 (Ref.eq),114.55485,R,ugm-3,50.74438,R,ugm-3,226.39271,R,ugm-3
11-01-2018,09:00,21.058,R,ugm-3 (Ref.eq),193.49866,R,ugm-3,70.24791,R,ugm-3,366.94171,R,ugm-3
11-01-2018,10:00,17.808,R,ugm-3 (Ref.eq),143.97551,R,ugm-3,65.30273,R,ugm-3,286.06210,R,ugm-3
11-01-2018,11:00,28.591,R,ugm-3 (Ref.eq),69.82112,R,ugm-3,49.18601,R,ugm-3,156.24356,R,ugm-3
11-01-2018,12:00,29.607,R,ugm-3 (Ref.eq),75.49021,R,ugm-3,49.92027,R,ugm-3,165.67032,R,ugm-3
11-01-2018,13:00,31.640,R,ugm-3 (Ref.eq),58.84132,R,ugm-3,43.75827,R,ugm-3,133.98036,R,ugm-3
11-01-2018,14:00,27.574,R,ugm-3 (Ref.eq),81.58287,R,ugm-3,49.00226,R,ugm-3,174.09424,R,ugm-3
11-01-2018,15:00,24.316,R,ugm-3 (Ref.eq),92.56267,R,ugm-3,52.42430,R,ugm-3,194.35175,R,ugm-3
11-01-2018,16:00,24.116,R,ugm-3 (Ref.eq),81.58287,R,ugm-3,52.91336,R,ugm-3,178.00534,R,ugm-3
11-01-2018,17:00,20.449,R,ugm-3 (Ref.eq),83.04901,R,ugm-3,56.48181,R,ugm-3,183.82185,R,ugm-3
11-01-2018,18:00,22.891,R,ugm-3 (Ref.eq),93.99623,R,ugm-3,66.67289,R,ugm-3,210.79844,R,ugm-3
11-01-2018,19:00,29.199,R,ugm-3 (Ref.eq),94.61527,R,ugm-3,62.81545,R,ugm-3,207.89018,R,ugm-3
11-01-2018,20:00,30.415,R,ugm-3 (Ref.eq),67.54045,R,ugm-3,60.75591,R,ugm-3,164.31648,R,ugm-3
11-01-2018,21:00,31.032,R,ugm-3 (Ref.eq),42.48565,R,ugm-3,55.19789,R,ugm-3,120.34164,R,ugm-3
11-01-2018,22:00,24.724,R,ugm-3 (Ref.eq),43.33275,R,ugm-3,52.34460,R,ugm-3,118.78723,R,ugm-3
11-01-2018,23:00,26.349,R,ugm-3 (Ref.eq),34.99201,R,ugm-3,51.74555,R,ugm-3,105.39922,R,ugm-3
11-01-2018,24:00,28.382,R,ugm-3 (Ref.eq),39.61852,R,ugm-3,47.71036,R,ugm-3,108.45790,R,ugm-3
12-01-2018,01:00,22.691,R,ugm-3 (Ref.eq),28.68895,R,ugm-3,44.47407,R,ugm-3,88.46317,R,ugm-3
12-01-2018,02:00,22.282,R,ugm-3 (Ref.eq),,,,,,,,,
12-01-2018,03:00,28.382,R,ugm-3 (Ref.eq),35.41631,R,ugm-3,42.93503,R,ugm-3,97.23928,R,ugm-3
12-01-2018,04:00,29.199,R,ugm-3 (Ref.eq),19.92168,R,ugm-3,40.76601,R,ugm-3,71.31215,R,ugm-3
12-01-2018,05:00,31.032,R,ugm-3 (Ref.eq),41.37328,R,ugm-3,44.38262,R,ugm-3,107.82076,R,ugm-3
12-01-2018,06:00,37.540,R,ugm-3 (Ref.eq),51.88750,R,ugm-3,44.65982,R,ugm-3,124.21955,R,ugm-3
12-01-2018,07:00,38.348,R,ugm-3 (Ref.eq),121.74357,R,ugm-3,57.15450,R,ugm-3,243.82537,R,ugm-3
12-01-2018,08:00,36.932,R,ugm-3 (Ref.eq),117.05611,R,ugm-3,50.85170,R,ugm-3,230.33523,R,ugm-3
12-01-2018,09:00,32.457,R,ugm-3 (Ref.eq),83.75567,R,ugm-3,44.84189,R,ugm-3,173.26545,R,ugm-3
12-01-2018,10:00,35.099,R,ugm-3 (Ref.eq),138.01944,R,ugm-3,56.42056,R,ugm-3,268.04742,R,ugm-3
12-01-2018,11:00,37.740,R,ugm-3 (Ref.eq),78.31952,R,ugm-3,47.05899,R,ugm-3,167.14725,R,ugm-3
12-01-2018,12:00,33.474,R,ugm-3 (Ref.eq),32.97493,R,ugm-3,34.44203,R,ugm-3,85.00288,R,ugm-3
12-01-2018,13:00,25.941,R,ugm-3 (Ref.eq),13.70429,R,ugm-3,31.14221,R,ugm-3,52.15516,R,ugm-3
12-01-2018,14:00,22.282,R,ugm-3 (Ref.eq),8.26815,R,ugm-3,32.45662,R,ugm-3,45.13427,R,ugm-3
12-01-2018,15:00,15.566,R,ugm-3 (Ref.eq),10.90484,R,ugm-3,39.19583,R,ugm-3,55.91635,R,ugm-3
12-01-2018,16:00,17.808,R,ugm-3 (Ref.eq),14.06236,R,ugm-3,42.98003,R,ugm-3,64.54201,R,ugm-3
12-01-2018,17:00,21.266,R,ugm-3 (Ref.eq),12.82539,R,ugm-3,46.68205,R,ugm-3,66.34738,R,ugm-3
12-01-2018,18:00,18.416,R,ugm-3 (Ref.eq),11.62098,R,ugm-3,48.67925,R,ugm-3,66.49783,R,ugm-3
12-01-2018,19:00,15.366,R,ugm-3 (Ref.eq),9.76553,R,ugm-3,44.95468,R,ugm-3,59.92828,R,ugm-3
12-01-2018,20:00,13.333,R,ugm-3 (Ref.eq),1.98566,R,ugm-3,27.99772,R,ugm-3,31.04235,R,ugm-3
12-01-2018,21:00,15.158,R,ugm-3 (Ref.eq),0.84635,R,ugm-3,19.11301,R,ugm-3,20.41072,R,ugm-3
12-01-2018,22:00,11.500,R,ugm-3 (Ref.eq),0.35807,R,ugm-3,15.04737,R,ugm-3,15.59640,R,ugm-3
12-01-2018,23:00,10.891,R,ugm-3 (Ref.eq),0.81379,R,ugm-3,13.84711,R,ugm-3,15.09491,R,ugm-3